| time (UTC) | temp C | wind direction | speed KPH | gust KPH | rain 1hr cm | rain 24hr cm | rain mn cm | humidity % | barometer mb |
| 20260506213003 | 19 | 276 | 19.3 | 29.0 | 0.00 | 0.00 | 0.00 | 24 | 1015.5 |
| 20260506212212 | 20 | 275 | 19.3 | 29.0 | 0.00 | 0.00 | 0.00 | 23 | 1015.6 |
| 20260506211003 | 20 | 292 | 24.1 | 37.0 | 0.00 | 0.00 | 0.00 | 25 | 1015.6 |
| 20260506210212 | 20 | 293 | 25.7 | 38.6 | 0.00 | 0.00 | 0.00 | 25 | 1015.5 |
| 20260506205214 | 20 | 279 | 25.7 | 37.0 | 0.00 | 0.00 | 0.00 | 26 | 1015.4 |
| 20260506204003 | 21 | 276 | 27.4 | 40.2 | 0.00 | 0.00 | 0.00 | 24 | 1015.3 |
| 20260506203003 | 22 | 288 | 20.9 | 38.6 | 0.00 | 0.00 | 0.00 | 25 | 1015.2 |
| 20260506202003 | 22 | 273 | 17.7 | 33.8 | 0.00 | 0.00 | 0.00 | 28 | 1015.1 |
| 20260506201003 | 21 | 280 | 16.1 | 24.1 | 0.00 | 0.00 | 0.00 | 29 | 1015.2 |
| 20260506200004 | 21 | 259 | 14.5 | 29.0 | 0.00 | 0.00 | 0.00 | 32 | 1015.3 |
| 20260506195003 | 21 | 241 | 17.7 | 27.4 | 0.00 | 0.00 | 0.00 | 30 | 1015.2 |
| 20260506194003 | 21 | 265 | 14.5 | 25.7 | 0.00 | 0.00 | 0.00 | 32 | 1015.3 |
| 20260506193003 | 21 | 256 | 19.3 | 35.4 | 0.00 | 0.00 | 0.00 | 32 | 1015.1 |
| 20260506192003 | 21 | 264 | 17.7 | 29.0 | 0.00 | 0.00 | 0.00 | 33 | 1015.3 |
| 20260506191003 | 20 | 291 | 17.7 | 25.7 | 0.00 | 0.00 | 0.00 | 35 | 1015.4 |
| 20260506190004 | 21 | 299 | 16.1 | 25.7 | 0.00 | 0.00 | 0.00 | 33 | 1015.6 |
| 20260506185003 | 21 | 278 | 14.5 | 32.2 | 0.00 | 0.00 | 0.00 | 34 | 1015.5 |
| 20260506184213 | 20 | 262 | 12.9 | 25.7 | 0.00 | 0.00 | 0.00 | 33 | 1015.6 |
| 20260506183004 | 20 | 295 | 17.7 | 29.0 | 0.00 | 0.00 | 0.00 | 35 | 1015.5 |
| 20260506182003 | 20 | 290 | 17.7 | 27.4 | 0.00 | 0.00 | 0.00 | 35 | 1015.5 |
| 20260506181004 | 20 | 295 | 17.7 | 25.7 | 0.00 | 0.00 | 0.00 | 35 | 1015.4 |
| 20260506180004 | 20 | 287 | 16.1 | 29.0 | 0.00 | 0.00 | 0.00 | 36 | 1015.4 |
| 20260506175004 | 19 | 288 | 16.1 | 29.0 | 0.00 | 0.00 | 0.00 | 36 | 1015.5 |
| 20260506174003 | 19 | 286 | 12.9 | 20.9 | 0.00 | 0.00 | 0.00 | 38 | 1015.4 |
| 20260506173004 | 19 | 281 | 16.1 | 25.7 | 0.00 | 0.00 | 0.00 | 37 | 1015.4 |
| 20260506172003 | 19 | 293 | 16.1 | 22.5 | 0.00 | 0.00 | 0.00 | 37 | 1015.4 |
| 20260506171005 | 19 | 292 | 17.7 | 27.4 | 0.00 | 0.00 | 0.00 | 36 | 1015.4 |
| 20260506170004 | 18 | 293 | 19.3 | 30.6 | 0.00 | 0.00 | 0.00 | 38 | 1015.4 |
| 20260506165003 | 18 | 296 | 17.7 | 25.7 | 0.00 | 0.00 | 0.00 | 37 | 1015.4 |
| 20260506164213 | 18 | 298 | 19.3 | 29.0 | 0.00 | 0.00 | 0.00 | 38 | 1015.4 |
| 20260506163003 | 18 | 300 | 19.3 | 29.0 | 0.00 | 0.00 | 0.00 | 38 | 1015.4 |
| 20260506162003 | 18 | 300 | 20.9 | 30.6 | 0.00 | 0.00 | 0.00 | 38 | 1015.4 |
| 20260506161213 | 18 | 303 | 16.1 | 29.0 | 0.00 | 0.00 | 0.00 | 40 | 1015.4 |
| 20260506160003 | 17 | 305 | 16.1 | 32.2 | 0.00 | 0.00 | 0.00 | 38 | 1015.4 |
| 20260506155212 | 17 | 306 | 16.1 | 27.4 | 0.00 | 0.00 | 0.00 | 39 | 1015.3 |
| 20260506154003 | 17 | 304 | 19.3 | 30.6 | 0.00 | 0.00 | 0.00 | 40 | 1015.3 |
| 20260506153004 | 17 | 301 | 24.1 | 33.8 | 0.00 | 0.00 | 0.00 | 39 | 1015.4 |
| 20260506152003 | 17 | 302 | 24.1 | 33.8 | 0.00 | 0.00 | 0.00 | 38 | 1015.4 |
| 20260506151003 | 17 | 301 | 20.9 | 30.6 | 0.00 | 0.00 | 0.00 | 39 | 1015.4 |
| 20260506150003 | 17 | 301 | 17.7 | 25.7 | 0.00 | 0.00 | 0.00 | 39 | 1015.4 |
| 20260506145003 | 17 | 300 | 19.3 | 29.0 | 0.00 | 0.00 | 0.00 | 37 | 1015.3 |
| 20260506144003 | 16 | 299 | 17.7 | 27.4 | 0.00 | 0.00 | 0.00 | 37 | 1015.2 |
| 20260506143003 | 16 | 302 | 16.1 | 25.7 | 0.00 | 0.00 | 0.00 | 37 | 1015.3 |
| 20260506142003 | 16 | 306 | 16.1 | 27.4 | 0.00 | 0.00 | 0.00 | 38 | 1015.2 |
| 20260506141003 | 16 | 304 | 17.7 | 29.0 | 0.00 | 0.00 | 0.00 | 37 | 1015.2 |
| 20260506140003 | 16 | 306 | 12.9 | 22.5 | 0.00 | 0.00 | 0.00 | 38 | 1015.3 |
| 20260506135214 | 15 | 308 | 9.7 | 19.3 | 0.00 | 0.00 | 0.00 | 40 | 1015.2 |
| 20260506134003 | 15 | 307 | 11.3 | 16.1 | 0.00 | 0.00 | 0.00 | 42 | 1015.2 |
| 20260506133003 | 15 | 308 | 9.7 | 14.5 | 0.00 | 0.00 | 0.00 | 43 | 1015.1 |
| 20260506132003 | 14 | 301 | 6.4 | 9.7 | 0.00 | 0.00 | 0.00 | 43 | 1015.1 |
| 20260506131003 | 13 | 300 | 9.7 | 14.5 | 0.00 | 0.00 | 0.00 | 44 | 1015.1 |
| 20260506130004 | 13 | 307 | 11.3 | 14.5 | 0.00 | 0.00 | 0.00 | 44 | 1015.1 |
| 20260506125003 | 13 | 309 | 11.3 | 16.1 | 0.00 | 0.00 | 0.00 | 43 | 1015.1 |
| 20260506124003 | 13 | 311 | 12.9 | 17.7 | 0.00 | 0.00 | 0.00 | 44 | 1015.0 |
| 20260506123003 | 14 | 305 | 17.7 | 24.1 | 0.00 | 0.00 | 0.00 | 43 | 1015.0 |
| 20260506122213 | 14 | 301 | 19.3 | 24.1 | 0.00 | 0.00 | 0.00 | 42 | 1014.9 |
| 20260506121003 | 14 | 303 | 19.3 | 27.4 | 0.00 | 0.00 | 0.00 | 42 | 1014.9 |
| 20260506120004 | 15 | 305 | 20.9 | 29.0 | 0.00 | 0.00 | 0.00 | 42 | 1014.8 |
| 20260506115003 | 15 | 305 | 20.9 | 30.6 | 0.00 | 0.00 | 0.00 | 42 | 1014.8 |
| 20260506114003 | 14 | 307 | 19.3 | 24.1 | 0.00 | 0.00 | 0.00 | 42 | 1014.9 |
| 20260506113213 | 15 | 307 | 19.3 | 25.7 | 0.00 | 0.00 | 0.00 | 43 | 1014.8 |
| 20260506112003 | 15 | 310 | 17.7 | 24.1 | 0.00 | 0.00 | 0.00 | 42 | 1014.9 |
| 20260506111003 | 15 | 310 | 19.3 | 29.0 | 0.00 | 0.00 | 0.00 | 42 | 1014.9 |
| 20260506110003 | 15 | 309 | 19.3 | 29.0 | 0.00 | 0.00 | 0.00 | 42 | 1014.7 |
| 20260506105004 | 15 | 307 | 20.9 | 33.8 | 0.00 | 0.00 | 0.00 | 40 | 1014.7 |
| 20260506104003 | 15 | 308 | 19.3 | 27.4 | 0.00 | 0.00 | 0.00 | 41 | 1014.7 |
| 20260506103003 | 15 | 308 | 17.7 | 24.1 | 0.00 | 0.00 | 0.00 | 41 | 1014.6 |
| 20260506102003 | 15 | 308 | 16.1 | 22.5 | 0.00 | 0.00 | 0.00 | 41 | 1014.5 |
| 20260506101003 | 15 | 308 | 16.1 | 20.9 | 0.00 | 0.00 | 0.00 | 42 | 1014.5 |
| 20260506100004 | 15 | 310 | 14.5 | 19.3 | 0.00 | 0.00 | 0.00 | 42 | 1014.5 |
| 20260506095003 | 15 | 310 | 14.5 | 19.3 | 0.00 | 0.00 | 0.00 | 43 | 1014.5 |
| 20260506094003 | 15 | 308 | 14.5 | 24.1 | 0.00 | 0.00 | 0.00 | 43 | 1014.6 |
| 20260506093003 | 15 | 306 | 12.9 | 17.7 | 0.00 | 0.00 | 0.00 | 44 | 1014.6 |
| 20260506092003 | 15 | 307 | 12.9 | 17.7 | 0.00 | 0.00 | 0.00 | 43 | 1014.6 |
| 20260506091003 | 15 | 306 | 12.9 | 17.7 | 0.00 | 0.00 | 0.00 | 44 | 1014.6 |
| 20260506090004 | 15 | 307 | 16.1 | 19.3 | 0.00 | 0.00 | 0.00 | 44 | 1014.6 |
| 20260506085214 | 15 | 307 | 14.5 | 19.3 | 0.00 | 0.00 | 0.00 | 45 | 1014.6 |
| 20260506084003 | 15 | 307 | 16.1 | 19.3 | 0.00 | 0.00 | 0.00 | 45 | 1014.6 |
| 20260506083003 | 15 | 308 | 16.1 | 22.5 | 0.00 | 0.00 | 0.00 | 46 | 1014.6 |
| 20260506082003 | 15 | 308 | 16.1 | 19.3 | 0.00 | 0.00 | 0.00 | 47 | 1014.6 |
| 20260506081003 | 15 | 309 | 11.3 | 17.7 | 0.00 | 0.00 | 0.00 | 47 | 1014.6 |
| 20260506073004 | 15 | 310 | 14.5 | 20.9 | 0.00 | 0.00 | 0.00 | 46 | 1014.3 |
| 20260506072003 | 15 | 310 | 16.1 | 22.5 | 0.00 | 0.00 | 0.00 | 47 | 1014.3 |
| 20260506071003 | 15 | 311 | 12.9 | 19.3 | 0.00 | 0.00 | 0.00 | 47 | 1014.3 |
| 20260506062003 | 16 | 308 | 17.7 | 20.9 | 0.00 | 0.00 | 0.00 | 45 | 1014.2 |
| 20260506061003 | 16 | 307 | 16.1 | 19.3 | 0.00 | 0.00 | 0.00 | 45 | 1014.1 |
| 20260506051003 | 16 | 305 | 11.3 | 16.1 | 0.00 | 0.00 | 0.00 | 44 | 1014.3 |
| 20260506045003 | 16 | 307 | 12.9 | 16.1 | 0.00 | 0.00 | 0.00 | 44 | 1014.2 |
| 20260506044003 | 16 | 309 | 11.3 | 12.9 | 0.00 | 0.00 | 0.00 | 44 | 1014.2 |
| 20260506043003 | 15 | 308 | 6.4 | 12.9 | 0.00 | 0.00 | 0.00 | 46 | 1014.2 |
| 20260506042003 | 13 | 325 | 3.2 | 6.4 | 0.00 | 0.00 | 0.00 | 51 | 1014.1 |
| 20260506041003 | 14 | 342 | 4.8 | 8.0 | 0.00 | 0.00 | 0.00 | 50 | 1014.0 |
| 20260506040004 | 16 | 305 | 4.8 | 11.3 | 0.00 | 0.00 | 0.00 | 45 | 1014.0 |
| 20260506035003 | 16 | 280 | 6.4 | 12.9 | 0.00 | 0.00 | 0.00 | 43 | 1014.0 |
| 20260506034003 | 17 | 280 | 3.2 | 8.0 | 0.00 | 0.00 | 0.00 | 43 | 1013.8 |
| 20260506033004 | 17 | 281 | 3.2 | 6.4 | 0.00 | 0.00 | 0.00 | 43 | 1013.8 |
| 20260506032003 | 17 | 263 | 1.6 | 4.8 | 0.00 | 0.00 | 0.00 | 43 | 1013.7 |
| 20260506031003 | 18 | 250 | 6.4 | 9.7 | 0.00 | 0.00 | 0.00 | 41 | 1013.7 |
| 20260506030003 | 18 | 244 | 6.4 | 12.9 | 0.00 | 0.00 | 0.00 | 39 | 1013.7 |
| 20260506025003 | 20 | 204 | 4.8 | 11.3 | 0.00 | 0.00 | 0.00 | 38 | 1013.7 |
| 20260506024003 | 20 | 223 | 8.0 | 14.5 | 0.00 | 0.00 | 0.00 | 37 | 1013.7 |
| 20260506023213 | 20 | 225 | 8.0 | 16.1 | 0.00 | 0.00 | 0.00 | 35 | 1013.6 |
| 20260506022003 | 21 | 219 | 6.4 | 12.9 | 0.00 | 0.00 | 0.00 | 35 | 1013.7 |
| 20260506021003 | 21 | 228 | 8.0 | 22.5 | 0.00 | 0.00 | 0.00 | 33 | 1013.5 |
| 20260506020003 | 21 | 222 | 8.0 | 19.3 | 0.00 | 0.00 | 0.00 | 33 | 1013.6 |
| 20260506015213 | 21 | 189 | 6.4 | 14.5 | 0.00 | 0.00 | 0.00 | 34 | 1013.4 |
| 20260506014003 | 21 | 186 | 11.3 | 19.3 | 0.00 | 0.00 | 0.00 | 36 | 1013.5 |
| 20260506013213 | 21 | 186 | 9.7 | 19.3 | 0.00 | 0.00 | 0.00 | 33 | 1013.5 |
| 20260506012213 | 21 | 210 | 8.0 | 16.1 | 0.00 | 0.00 | 0.00 | 34 | 1013.5 |
| 20260506011003 | 21 | 184 | 9.7 | 19.3 | 0.00 | 0.00 | 0.00 | 35 | 1013.5 |
| 20260506010003 | 21 | 211 | 4.8 | 19.3 | 0.00 | 0.00 | 0.00 | 33 | 1013.6 |
| 20260506005003 | 20 | 148 | 4.8 | 9.7 | 0.00 | 0.00 | 0.00 | 35 | 1013.6 |
| 20260506004003 | 21 | 179 | 11.3 | 17.7 | 0.00 | 0.00 | 0.00 | 34 | 1013.7 |
| 20260506003003 | 21 | 161 | 9.7 | 16.1 | 0.00 | 0.00 | 0.00 | 35 | 1013.6 |
| 20260506002212 | 21 | 173 | 8.0 | 14.5 | 0.00 | 0.00 | 0.00 | 33 | 1013.7 |
| 20260506001003 | 21 | 151 | 8.0 | 22.5 | 0.00 | 0.00 | 0.00 | 34 | 1013.7 |
| 20260506000003 | 22 | 166 | 9.7 | 20.9 | 0.00 | 0.00 | 0.00 | 35 | 1013.8 |
| 20260505235003 | 21 | 181 | 6.4 | 16.1 | 0.00 | 0.00 | 0.00 | 34 | 1014.0 |
| 20260505234004 | 21 | 164 | 11.3 | 20.9 | 0.00 | 0.00 | 0.00 | 34 | 1014.0 |
| 20260505233214 | 21 | 142 | 9.7 | 19.3 | 0.00 | 0.00 | 0.00 | 35 | 1014.0 |
| 20260505232214 | 21 | 149 | 9.7 | 19.3 | 0.00 | 0.00 | 0.00 | 35 | 1014.1 |
| 20260505231003 | 22 | 172 | 9.7 | 20.9 | 0.00 | 0.00 | 0.00 | 33 | 1014.1 |
| 20260505230004 | 22 | 221 | 4.8 | 16.1 | 0.00 | 0.00 | 0.00 | 35 | 1014.3 |
| 20260505225003 | 21 | 248 | 6.4 | 17.7 | 0.00 | 0.00 | 0.00 | 33 | 1014.3 |
| 20260505224003 | 21 | 202 | 11.3 | 19.3 | 0.00 | 0.00 | 0.00 | 32 | 1014.3 |
| 20260505223214 | 22 | 180 | 6.4 | 19.3 | 0.00 | 0.00 | 0.00 | 33 | 1014.4 |
| 20260505222003 | 22 | 138 | 3.2 | 11.3 | 0.00 | 0.00 | 0.00 | 33 | 1014.5 |
| 20260505221003 | 21 | 204 | 4.8 | 17.7 | 0.00 | 0.00 | 0.00 | 34 | 1014.5 |
| 20260505220004 | 21 | 185 | 9.7 | 19.3 | 0.00 | 0.00 | 0.00 | 35 | 1014.6 |
| 20260505215003 | 21 | 123 | 3.2 | 12.9 | 0.00 | 0.00 | 0.00 | 34 | 1014.7 |
| 20260505214003 | 21 | 65 | 3.2 | 12.9 | 0.00 | 0.00 | 0.00 | 36 | 1014.8 |